Powrót do katalogu

COSMOS 970 DEB

AktywnyLEO
NORAD 10580·DEBRIS·🇷🇺 Russia

Wystrzelony Dec 21, 1977 z Baikonur Cosmodrome

Loading…

Następne Przeloty (najbliższe 24 godziny)

TLE

ŚwieżeSource: Space-Track

Epoka: Sep 13, 2026, 12:25 UTC

1 10580U 77121X   26256.51764328  .00000151  00000-0  37739-3 0  9998
2 10580  65.6817 323.3847 0087711 232.9220 242.6511 13.44762160386173

Śledź COSMOS 970 DEB w czasie rzeczywistym z AllMySat

Download on the App Store